User: anonymous   Login
Location: Hamilton Branch State Park
(33.7552°N, 82.2209°W)
Time: 16:33:23
(UTC-05:00)
Language:

BUGSAT 1 - Orbit

View from above orbital plane
View from above orbital plane
View from above satellite
View from above satellite

Ground track
Ground track

The orbit data is extracted from the following two-line orbital elements,

1 40014U 14033E   19324.35462099  .00000424  00000-0  43843-4 0  9993
2 40014  98.0338 275.5049 0030421 268.2541  91.5216 14.95349711295613
Epoch (UTC): 20 November 2019 08:30:39
Eccentricity: 0.0030421
inclination: 98.0338°
perigee height: 560 km
apogee height: 602 km
right ascension of ascending node: 275.5049°
argument of perigee: 268.2541°
revolutions per day: 14.95349711
mean anomaly at epoch: 91.5216°
orbit number at epoch: 29561

The dashed part of the orbit path shows where the satellite is in the earth's shadow,  

DLR